User: anonymous   Login
Location: Unspecified
(0.0000°N, 0.0000°E)
Time: 06:50:36
(UTC+00:00)
Language:

TBA - TO BE ASSIGNED - Orbit

View from above orbital plane
View from above orbital plane
View from above satellite
View from above satellite

Ground track
Ground track

The orbit is defined by the following mean orbital elements,

1 68268U          26145.51839024 +.00000000 +00000-0 +11190-2 0 00007
2 68268  53.1584 320.9653 0001016  94.5744 265.5375 15.34423143    00
Epoch (UTC): 25 May 2026 12:26:28
Eccentricity: 0.0001016
inclination: 53.1584°
perigee height: 462 km
apogee height: 463 km
right ascension of ascending node: 320.9653°
argument of perigee: 94.5744°
revolutions per day: 15.34423143
mean anomaly at epoch: 265.5375°

The dashed part of the orbit path shows where the satellite is in the earth's shadow,  

DLR